Voltar ao catálogo

STARLINK-6334

AtivoComunicaçõesVLEO
NORAD 57238·PAYLOAD·🇺🇸 United States

Lançado Jul 7, 2023 de Vandenberg Space Force Base

Loading…

Próximas Passagens (próximas 24 horas)

TLE

AtualizadoSource: CelesTrak SupGP

Época: Sep 15, 2026, 01:37 UTC

1 57238C 23094W   26258.06784722 -.00069915  00000+0 -25320-2 0  2585
2 57238  43.0049  30.6332 0001995 270.5904 316.7165 15.27616293    17

Acompanhe STARLINK-6334 em tempo real com AllMySat

Download on the App Store